Weather History for KLWT - March, 2014

Change the Weather History Date:

Wednesday, March 5, 2014

  Actual Average Record
Temperature  
Mean Temperature 40 °F 30 °F  
Max Temperature 45 °F 41 °F 70 °F (1987)
Min Temperature 34 °F 19 °F -28 °F (1945)
Degree Days  
Heating Degree Days 25 35  
Month to date heating degree days 248 180  
Since 1 July heating degree days 6304 5984  
Cooling Degree Days 0 0  
Month to date cooling degree days 0 0  
Year to date cooling degree days 0 0  
Moisture  
Dew Point 27 °F    
Average Humidity 60    
Maximum Humidity 70    
Minimum Humidity 49    
Precipitation  
Precipitation T in 0.02 in 0.70 in (1921)
Month to date precipitation 0.01 0.10  
Year to date precipitation 1.29 1.11  
Snow  
Snow 0.00 in - - ()
Snow Depth T in    
Sea Level Pressure  
Sea Level Pressure 29.82 in    
Wind  
Wind Speed 17 mph (SW)    
Max Wind Speed 25 mph    
Max Gust Speed 30 mph    
Visibility 10 miles    
Events Rain    
T = Trace of Precipitation, MM = Missing Value Source: NWS Daily Summary

Daily Weather History Graph

Daily Weather History Graph

Search for Another Location

Airport or City:

Trip Planner

Search our weather history database for the weather conditions in past years. The results will help you decide how hot, cold, wet, or windy it might be!

Date:

Astronomy

Mar. 05, 2014 Rise Set
Actual Time 6:50 AM MST 6:09 PM MST
Civil Twilight 6:19 AM MST 6:39 PM MST
Nautical Twilight 5:44 AM MST 7:15 PM MST
Astronomical Twilight 5:08 AM MST 7:50 PM MST
Moon 8:58 AM MST (3/5) 11:42 PM MST (3/5)
Length of Visible Light 12h 20m
Length of Day
11h 19m
Waxing Crescent, 24% of the Moon is Illuminated
Mar 5
Waxing Crescent
Mar 8
First Quarter
Mar 16
Full
Mar 23
Last Quarter
Mar 30
New

Hourly Weather History & Observations

Time (MST) Temp. Windchill Dew Point Humidity Pressure Visibility Wind Dir Wind Speed Gust Speed Precip Events Conditions
12:54 AM 37.0 °F 27.4 °F 25.0 °F 62% 29.90 in 10.0 mi SW 17.3 mph - N/A   Partly Cloudy
1:54 AM 36.0 °F 25.6 °F 24.1 °F 62% 29.91 in 10.0 mi WSW 18.4 mph - N/A   Clear
2:54 AM 34.0 °F 24.6 °F 23.0 °F 64% 29.91 in 10.0 mi SW 13.8 mph - N/A   Clear
3:54 AM 35.1 °F 25.2 °F 24.1 °F 64% 29.92 in 10.0 mi SW 16.1 mph - N/A   Clear
4:54 AM 37.0 °F 27.4 °F 25.0 °F 62% 29.91 in 10.0 mi SW 17.3 mph - N/A   Clear
5:54 AM 37.0 °F 27.0 °F 25.0 °F 62% 29.91 in 10.0 mi SW 18.4 mph - N/A   Clear
6:54 AM 37.9 °F 27.9 °F 25.0 °F 60% 29.91 in 10.0 mi WSW 19.6 mph - N/A   Scattered Clouds
7:54 AM 39.0 °F 29.6 °F 25.0 °F 57% 29.90 in 10.0 mi WSW 18.4 mph - N/A   Clear
8:54 AM 41.0 °F 32.5 °F 26.1 °F 55% 29.89 in 10.0 mi SW 17.3 mph - N/A   Clear
9:54 AM 42.1 °F 33.1 °F 26.1 °F 53% 29.88 in 10.0 mi SW 20.7 mph - N/A   Partly Cloudy
10:54 AM 43.0 °F 33.8 °F 26.1 °F 51% 29.86 in 10.0 mi SW 23.0 mph - N/A   Clear
11:54 AM 43.0 °F 34.2 °F 27.0 °F 53% 29.82 in 10.0 mi SW 20.7 mph - N/A   Clear
12:54 PM 44.1 °F 35.9 °F 26.1 °F 49% 29.79 in 10.0 mi SW 19.6 mph - N/A   Mostly Cloudy
1:54 PM 44.1 °F 35.9 °F 26.1 °F 49% 29.77 in 10.0 mi SW 19.6 mph - N/A   Overcast
2:54 PM 44.1 °F 37.7 °F 27.0 °F 51% 29.78 in 10.0 mi SW 12.7 mph - N/A   Overcast
3:54 PM 45.0 °F 38.5 °F 28.0 °F 52% 29.78 in 10.0 mi West 13.8 mph - 0.00 in Rain Light Rain
4:54 PM 43.0 °F 35.7 °F 28.9 °F 58% 29.74 in 10.0 mi SW 15.0 mph - 0.00 in   Mostly Cloudy
5:54 PM 42.1 °F 33.6 °F 30.0 °F 62% 29.73 in 10.0 mi SW 18.4 mph - N/A   Clear
6:54 PM 42.1 °F 33.3 °F 30.0 °F 62% 29.74 in 10.0 mi SW 19.6 mph - N/A   Partly Cloudy
7:54 PM 41.0 °F 33.5 °F 30.0 °F 65% 29.73 in 10.0 mi SW 13.8 mph - N/A   Scattered Clouds
8:54 PM 41.0 °F 34.7 °F 30.0 °F 65% 29.72 in 10.0 mi WSW 10.4 mph - N/A   Clear
9:54 PM 39.9 °F 33.4 °F 30.9 °F 70% 29.73 in 10.0 mi SSW 10.4 mph - N/A   Partly Cloudy
10:54 PM 41.0 °F 35.2 °F 30.9 °F 67% 29.72 in 10.0 mi SW 9.2 mph - N/A   Overcast
11:54 PM 41.0 °F 33.9 °F 33.1 °F 73% 29.69 in 10.0 mi SW 12.7 mph - N/A   Mostly Cloudy